Location: Asbacherhof
(48.8543°N, 10.7903°E)
Time: 17:11:18
(UTC+00:00)

USA 307 - Pass Details

Date: 26 May 2022
Orbit: 552 x 554 km, 54.0° (Epoch: 17 June)

Event Time Altitude Azimuth Distance (km) Brightness Sun altitude
Exits shadow 01:47:50 10° 261° (W) 1,868 5.1 -12.1°
Reaches altitude 10° 01:47:55 10° 261° (W) 1,838 5.1 -12.1°
Maximum altitude 01:52:02 58° 341° (NNW) 655 3.4 -11.7°
Drops below altitude 10° 01:56:10 10° 61° (ENE) 1,846 6.7 -11.3°
Sets 01:58:27 0° 66° (ENE) 2,743 7.6 -11.0°
